Location: Newark
(47.0667°N, 8.7500°E)
Time: 18:31:43
(UTC+00:00)

ISS - Visible Passes

Search period start: 22 October 2019 00:00
Search period end: 01 November 2019 00:00
Orbit: 411 x 421 km, 51.6° (Epoch: 22 October)

Date Brightness Start Highest point End Pass type
(mag) Time Alt. Az. Time Alt. Az. Time Alt. Az.
24 Oct -0.9 04:49:10 10° S 04:51:20 16° SE 04:53:30 10° E visible
26 Oct -2.3 04:47:26 10° SSW 04:50:34 36° SE 04:53:42 10° ENE visible
27 Oct -1.7 04:00:46 18° S 04:02:05 23° SE 04:04:50 10° E visible
28 Oct -0.7 03:14:38 13° ESE 03:14:38 13° ESE 03:15:39 10° E visible
28 Oct -3.7 04:47:33 18° WSW 04:49:55 81° SSE 04:53:18 10° ENE visible
29 Oct -3.2 04:01:15 53° SSE 04:01:20 53° SSE 04:04:37 10° ENE visible
30 Oct -0.8 03:14:50 17° E 03:14:50 17° E 03:15:51 10° ENE visible
30 Oct -3.5 04:47:45 26° W 04:49:23 56° NNW 04:52:44 10° ENE visible
31 Oct -3.3 04:01:14 58° NE 04:01:14 58° NE 04:04:04 10° ENE visible
